,,,PA_Meas_PMT16A,,PR_Meas_QMR101_102,,RH_Meas_QMH101,,SR_Meas_QMS101,,TA_Meas_QMH101,,GenWind,,GenWind,
date,time,status,PA,status,PR,status,RH,status,SR,status,TA,status,DirAvg,status,SpdAvg,
2011-11-09, 00:00:04,VALID,1000.55,VALID,0,VALID,91.3418,VALID,0,VALID,22.9598,VALID,49,VALID,0.408203,
2011-11-09, 00:01:04,VALID,1000.54,VALID,0,VALID,91.4715,VALID,0,VALID,22.9793,VALID,49,VALID,0.532812,
2011-11-09, 00:02:04,VALID,1000.55,VALID,0,VALID,91.5631,VALID,0,VALID,22.9793,VALID,49,VALID,0.756641,
2011-11-09, 00:03:04,VALID,1000.54,VALID,0,VALID,91.502,VALID,0,VALID,22.9598,VALID,31,VALID,0.587109,
2011-11-09, 00:04:04,VALID,1000.56,VALID,0,VALID,91.4563,VALID,0,VALID,22.9793,VALID,31,VALID,0.445313,
2011-11-09, 00:05:04,VALID,1000.52,VALID,0,VALID,91.4334,VALID,0,VALID,22.9988,VALID,31,VALID,0.569922,
2011-11-09, 00:06:04,VALID,1000.47,VALID,0,VALID,91.5249,VALID,0.104696,VALID,22.9971,VALID,31,VALID,0.526172,
2011-11-09, 00:07:04,VALID,1000.49,VALID,0,VALID,91.586,VALID,0,VALID,22.9988,VALID,31,VALID,0.461719,
2011-11-09, 00:08:04,VALID,1000.46,VALID,0,VALID,91.647,VALID,0,VALID,22.9988,VALID,31,VALID,0.612109,
2011-11-09, 00:09:04,VALID,1000.48,VALID,0,VALID,91.7538,VALID,0,VALID,22.9776,VALID,31,VALID,0.432422,
2011-11-09, 00:10:04,VALID,1000.46,VALID,0,VALID,91.8454,VALID,0,VALID,22.9793,VALID,31,VALID,0.480469,
2011-11-09, 00:11:04,VALID,1000.46,VALID,0,VALID,91.9369,VALID,0,VALID,22.9793,VALID,31,VALID,0.471484,
2011-11-09, 00:12:04,VALID,1000.45,VALID,0,VALID,91.9827,VALID,0,VALID,22.9793,VALID,31,VALID,0.573438,
2011-11-09, 00:13:04,VALID,1000.41,VALID,0,VALID,91.998,VALID,0,VALID,22.9793,VALID,31,VALID,0.603906,
2011-11-09, 00:14:04,VALID,1000.42,VALID,0,VALID,91.9369,VALID,0,VALID,22.9598,VALID,31,VALID,0.723047,
2011-11-09, 00:15:04,VALID,1000.39,VALID,0,VALID,91.7691,VALID,0,VALID,22.9403,VALID,31,VALID,0.939844,
2011-11-09, 00:16:04,VALID,1000.38,VALID,0,VALID,91.6165,VALID,0,VALID,22.9598,VALID,31,VALID,0.721875,
2011-11-09, 00:17:04,VALID,1000.37,VALID,0,VALID,91.5554,VALID,0,VALID,22.9598,VALID,31,VALID,0.632422,
2011-11-09, 00:18:04,VALID,1000.34,VALID,0,VALID,91.6012,VALID,0,VALID,22.9385,VALID,31,VALID,0.418359,
2011-11-09, 00:19:04,VALID,1000.35,VALID,0,VALID,91.6928,VALID,0,VALID,22.9208,VALID,31,VALID,0.459375,
2011-11-09, 00:20:04,VALID,1000.33,VALID,0,VALID,91.7614,VALID,0,VALID,22.9013,VALID,31,VALID,0.523828,
2011-11-09, 00:21:04,VALID,1000.3,VALID,0,VALID,91.7233,VALID,0,VALID,22.9013,VALID,31,VALID,0.558203,
2011-11-09, 00:22:04,VALID,1000.29,VALID,0,VALID,91.6546,VALID,0,VALID,22.9208,VALID,14,VALID,0.896484,
2011-11-09, 00:23:04,VALID,1000.28,VALID,0,VALID,91.5173,VALID,0,VALID,22.8995,VALID,14,VALID,1.07969,
2011-11-09, 00:24:04,VALID,1000.29,VALID,0,VALID,91.3113,VALID,0,VALID,22.9208,VALID,14,VALID,1.12188,
2011-11-09, 00:25:04,VALID,1000.28,VALID,0,VALID,91.174,VALID,0.104696,VALID,22.9403,VALID,14,VALID,0.839063,
2011-11-09, 00:26:04,VALID,1000.27,VALID,0,VALID,91.0824,VALID,0,VALID,22.9385,VALID,14,VALID,0.919141,
2011-11-09, 00:27:04,VALID,1000.25,VALID,0,VALID,91.0366,VALID,0,VALID,22.9598,VALID,14,VALID,0.796094,
2011-11-09, 00:28:04,VALID,1000.25,VALID,0,VALID,90.8993,VALID,0,VALID,22.9385,VALID,14,VALID,0.884766,
2011-11-09, 00:29:04,VALID,1000.22,VALID,0,VALID,90.9374,VALID,0,VALID,22.919,VALID,14,VALID,0.853125,
2011-11-09, 00:30:04,VALID,1000.26,VALID,0,VALID,91.0214,VALID,0,VALID,22.9208,VALID,14,VALID,0.688281,
2011-11-09, 00:31:04,VALID,1000.21,VALID,0,VALID,91.1282,VALID,0,VALID,22.9013,VALID,18,VALID,0.601953,
2011-11-09, 00:32:04,VALID,1000.23,VALID,0,VALID,91.2731,VALID,0,VALID,22.88,VALID,28,VALID,0.603516,
2011-11-09, 00:33:04,VALID,1000.18,VALID,0,VALID,91.38,VALID,0,VALID,22.8818,VALID,28,VALID,0.511719,
2011-11-09, 00:34:04,VALID,1000.18,VALID,0,VALID,91.4563,VALID,0,VALID,22.8605,VALID,28,VALID,0.340625,
2011-11-09, 00:35:04,VALID,1000.16,VALID,0,VALID,91.5249,VALID,0,VALID,22.8623,VALID,28,VALID,0.113672,
2011-11-09, 00:36:04,VALID,1000.13,VALID,0,VALID,91.5783,VALID,0.104696,VALID,22.8427,VALID,28,VALID,0.492578,
2011-11-09, 00:37:04,VALID,1000.13,VALID,0,VALID,91.6394,VALID,0,VALID,22.8427,VALID,28,VALID,0.510156,
2011-11-09, 00:38:04,VALID,1000.12,VALID,0,VALID,91.6851,VALID,0,VALID,22.8215,VALID,28,VALID,0.549609,
2011-11-09, 00:39:04,VALID,1000.11,VALID,0,VALID,91.7233,VALID,0,VALID,22.841,VALID,42,VALID,0.841797,
2011-11-09, 00:40:04,VALID,1000.11,VALID,0,VALID,91.792,VALID,0.104696,VALID,22.841,VALID,43,VALID,0.867188,
2011-11-09, 00:41:04,VALID,1000.09,VALID,0,VALID,91.8377,VALID,0.104696,VALID,22.8818,VALID,50,VALID,0.926172,
2011-11-09, 00:42:04,VALID,1000.09,VALID,0,VALID,91.9293,VALID,0,VALID,22.88,VALID,50,VALID,0.931641,
2011-11-09, 00:43:04,VALID,1000.07,VALID,0,VALID,91.998,VALID,0,VALID,22.88,VALID,50,VALID,0.862109,
2011-11-09, 00:44:04,VALID,1000.06,VALID,0,VALID,92.0895,VALID,0,VALID,22.88,VALID,50,VALID,0.791797,
2011-11-09, 00:45:04,VALID,1000.02,VALID,0,VALID,92.1734,VALID,0,VALID,22.88,VALID,50,VALID,0.587109,
2011-11-09, 00:46:04,VALID,1000.04,VALID,0,VALID,92.2497,VALID,0,VALID,22.88,VALID,50,VALID,0.842969,
2011-11-09, 00:47:04,VALID,1000,VALID,0,VALID,92.2803,VALID,0,VALID,22.8605,VALID,50,VALID,0.899609,
2011-11-09, 00:48:04,VALID,1000.02,VALID,0,VALID,92.2574,VALID,0,VALID,22.8623,VALID,50,VALID,0.615234,
2011-11-09, 00:49:04,VALID,999.997,VALID,0,VALID,92.3031,VALID,0.104696,VALID,22.841,VALID,50,VALID,0.670703,
2011-11-09, 00:50:04,VALID,999.986,VALID,0,VALID,92.2955,VALID,0,VALID,22.8623,VALID,50,VALID,0.703516,
2011-11-09, 00:51:04,VALID,999.961,VALID,0,VALID,92.326,VALID,0,VALID,22.841,VALID,50,VALID,0.504297,
2011-11-09, 00:52:04,VALID,999.952,VALID,0,VALID,92.4176,VALID,0,VALID,22.841,VALID,50,VALID,0.549219,
2011-11-09, 00:53:04,VALID,999.942,VALID,0,VALID,92.471,VALID,0.104696,VALID,22.8215,VALID,50,VALID,0.6875,
2011-11-09, 00:54:04,VALID,999.908,VALID,0,VALID,92.4786,VALID,0,VALID,22.8215,VALID,50,VALID,0.573828,
2011-11-09, 00:55:04,VALID,999.911,VALID,0,VALID,92.5015,VALID,0,VALID,22.802,VALID,50,VALID,0.671094,
2011-11-09, 00:56:04,VALID,999.909,VALID,0,VALID,92.4786,VALID,0,VALID,22.8232,VALID,50,VALID,0.722266,
2011-11-09, 00:57:04,VALID,999.894,VALID,0,VALID,92.5168,VALID,0,VALID,22.7825,VALID,50,VALID,0.703906,
2011-11-09, 00:58:04,VALID,999.888,VALID,0,VALID,92.6083,VALID,0.104696,VALID,22.763,VALID,50,VALID,0.651172,
2011-11-09, 00:59:04,VALID,999.855,VALID,0,VALID,92.7075,VALID,0,VALID,22.763,VALID,50,VALID,0.647656,
2011-11-09, 01:00:04,VALID,999.837,VALID,0,VALID,92.7838,VALID,0,VALID,22.7647,VALID,50,VALID,0.682031,
2011-11-09, 01:01:04,VALID,999.818,VALID,0,VALID,92.8143,VALID,0,VALID,22.724,VALID,50,VALID,0.530469,
2011-11-09, 01:02:04,VALID,999.818,VALID,0,VALID,92.8143,VALID,0,VALID,22.7027,VALID,50,VALID,0.433984,
2011-11-09, 01:03:04,VALID,999.818,VALID,0,VALID,92.7991,VALID,0.104696,VALID,22.7045,VALID,50,VALID,0.339453,
2011-11-09, 01:04:04,VALID,999.815,VALID,0,VALID,92.7914,VALID,0.104696,VALID,22.7045,VALID,50,VALID,0,
2011-11-09, 01:05:04,VALID,999.79,VALID,0,VALID,92.7533,VALID,0,VALID,22.7045,VALID,50,VALID,0,
2011-11-09, 01:06:04,VALID,999.802,VALID,0,VALID,92.7609,VALID,0,VALID,22.685,VALID,50,VALID,0,
2011-11-09, 01:07:04,VALID,999.775,VALID,0,VALID,92.7457,VALID,0.104696,VALID,22.685,VALID,50,VALID,0.378125,
2011-11-09, 01:08:04,VALID,999.761,VALID,0,VALID,92.7304,VALID,0.104696,VALID,22.685,VALID,50,VALID,0.444531,
2011-11-09, 01:09:04,VALID,999.753,VALID,0,VALID,92.7533,VALID,0.104696,VALID,22.685,VALID,50,VALID,0.373047,
2011-11-09, 01:10:04,VALID,999.746,VALID,0,VALID,92.7838,VALID,0,VALID,22.685,VALID,50,VALID,0.257031,
2011-11-09, 01:11:04,VALID,999.718,VALID,0,VALID,92.7914,VALID,0.104696,VALID,22.6637,VALID,50,VALID,0.316016,
2011-11-09, 01:12:04,VALID,999.746,VALID,0,VALID,92.7914,VALID,0,VALID,22.6655,VALID,50,VALID,0.359375,
2011-11-09, 01:13:04,VALID,999.739,VALID,0,VALID,92.7151,VALID,0,VALID,22.6867,VALID,50,VALID,0.389453,
2011-11-09, 01:14:04,VALID,999.734,VALID,0,VALID,92.6236,VALID,0.104696,VALID,22.685,VALID,50,VALID,0.364453,
2011-11-09, 01:15:04,VALID,999.715,VALID,0,VALID,92.5931,VALID,0,VALID,22.7257,VALID,50,VALID,0.216016,
2011-11-09, 01:16:04,VALID,999.733,VALID,0,VALID,92.5244,VALID,0,VALID,22.7062,VALID,50,VALID,0.198437,
2011-11-09, 01:17:04,VALID,999.727,VALID,0,VALID,92.4252,VALID,0,VALID,22.7062,VALID,50,VALID,0,
2011-11-09, 01:18:04,VALID,999.665,VALID,0,VALID,92.3413,VALID,0,VALID,22.7257,VALID,50,VALID,0,
2011-11-09, 01:19:04,VALID,999.667,VALID,0,VALID,92.2955,VALID,0,VALID,22.7647,VALID,50,VALID,0,
2011-11-09, 01:20:04,VALID,999.687,VALID,0,VALID,92.2803,VALID,0,VALID,22.7647,VALID,50,VALID,0,
2011-11-09, 01:21:04,VALID,999.658,VALID,0,VALID,92.2268,VALID,0.104696,VALID,22.763,VALID,50,VALID,0,
2011-11-09, 01:22:04,VALID,999.641,VALID,0,VALID,92.1658,VALID,0,VALID,22.763,VALID,50,VALID,0,
2011-11-09, 01:23:04,VALID,999.637,VALID,0,VALID,92.1734,VALID,0,VALID,22.7842,VALID,50,VALID,0,
2011-11-09, 01:24:04,VALID,999.624,VALID,0,VALID,92.1429,VALID,0,VALID,22.8037,VALID,50,VALID,0,
2011-11-09, 01:25:04,VALID,999.614,VALID,0,VALID,92.0819,VALID,0,VALID,22.8037,VALID,50,VALID,0,
2011-11-09, 01:26:04,VALID,999.65,VALID,0,VALID,92.0743,VALID,0,VALID,22.8037,VALID,50,VALID,0,
2011-11-09, 01:27:04,VALID,999.627,VALID,0,VALID,92.0895,VALID,0,VALID,22.802,VALID,50,VALID,0,
2011-11-09, 01:28:04,VALID,999.619,VALID,0,VALID,92.0743,VALID,0,VALID,22.8232,VALID,50,VALID,0,
2011-11-09, 01:29:04,VALID,999.594,VALID,0,VALID,92.0743,VALID,0,VALID,22.8232,VALID,50,VALID,0,
2011-11-09, 01:30:04,VALID,999.587,VALID,0,VALID,92.0743,VALID,0,VALID,22.8232,VALID,50,VALID,0,
2011-11-09, 01:31:04,VALID,999.602,VALID,0,VALID,92.0743,VALID,0,VALID,22.8427,VALID,50,VALID,0,
2011-11-09, 01:32:04,VALID,999.554,VALID,0,VALID,92.0971,VALID,0,VALID,22.8232,VALID,50,VALID,0,
2011-11-09, 01:33:04,VALID,999.552,VALID,0,VALID,92.059,VALID,0,VALID,22.8037,VALID,50,VALID,0,
2011-11-09, 01:34:04,VALID,999.542,VALID,0,VALID,92.0666,VALID,0,VALID,22.7842,VALID,50,VALID,0,
2011-11-09, 01:35:04,VALID,999.568,VALID,0,VALID,92.0666,VALID,0,VALID,22.7647,VALID,50,VALID,0,
2011-11-09, 01:36:04,VALID,999.552,VALID,0,VALID,92.1353,VALID,0,VALID,22.7452,VALID,50,VALID,0,
2011-11-09, 01:37:04,VALID,999.566,VALID,0,VALID,92.2192,VALID,0,VALID,22.7257,VALID,50,VALID,0,
2011-11-09, 01:38:04,VALID,999.581,VALID,0,VALID,92.265,VALID,0,VALID,22.7062,VALID,50,VALID,0,
2011-11-09, 01:39:04,VALID,999.554,VALID,0,VALID,92.3489,VALID,0,VALID,22.7062,VALID,50,VALID,0,
2011-11-09, 01:40:04,VALID,999.544,VALID,0,VALID,92.3871,VALID,0,VALID,22.7062,VALID,50,VALID,0,
2011-11-09, 01:41:04,VALID,999.536,VALID,0,VALID,92.41,VALID,0,VALID,22.6867,VALID,50,VALID,0,
2011-11-09, 01:42:04,VALID,999.55,VALID,0,VALID,92.4557,VALID,0,VALID,22.6867,VALID,50,VALID,0,
2011-11-09, 01:43:04,VALID,999.56,VALID,0,VALID,92.5091,VALID,0,VALID,22.6867,VALID,50,VALID,0,
2011-11-09, 01:44:04,VALID,999.558,VALID,0,VALID,92.532,VALID,0,VALID,22.6672,VALID,50,VALID,0,
2011-11-09, 01:45:04,VALID,999.556,VALID,0,VALID,92.5778,VALID,0,VALID,22.6477,VALID,50,VALID,0,
2011-11-09, 01:46:04,VALID,999.517,VALID,0,VALID,92.6236,VALID,0,VALID,22.6655,VALID,50,VALID,0,
2011-11-09, 01:47:04,VALID,999.506,VALID,0,VALID,92.7151,VALID,0,VALID,22.6672,VALID,50,VALID,0,
2011-11-09, 01:48:04,VALID,999.476,VALID,0,VALID,92.7304,VALID,0,VALID,22.6477,VALID,50,VALID,0,
2011-11-09, 01:49:04,VALID,999.49,VALID,0,VALID,92.7304,VALID,0,VALID,22.6477,VALID,50,VALID,0,
2011-11-09, 01:50:04,VALID,999.498,VALID,0,VALID,92.7228,VALID,0,VALID,22.6282,VALID,50,VALID,0,
2011-11-09, 01:51:04,VALID,999.481,VALID,0,VALID,92.7075,VALID,0,VALID,22.6087,VALID,50,VALID,0,
2011-11-09, 01:52:04,VALID,999.482,VALID,0,VALID,92.6694,VALID,0,VALID,22.5892,VALID,50,VALID,0,
2011-11-09, 01:53:04,VALID,999.484,VALID,0,VALID,92.6541,VALID,0,VALID,22.6087,VALID,50,VALID,0,
2011-11-09, 01:54:04,VALID,999.474,VALID,0,VALID,92.6236,VALID,0,VALID,22.5696,VALID,50,VALID,0.212109,
2011-11-09, 01:55:04,VALID,999.495,VALID,0,VALID,92.5549,VALID,0,VALID,22.5696,VALID,50,VALID,0.485156,
2011-11-09, 01:56:04,VALID,999.48,VALID,0,VALID,92.4939,VALID,0,VALID,22.5892,VALID,50,VALID,0.307031,
2011-11-09, 01:57:04,VALID,999.485,VALID,0,VALID,92.41,VALID,0,VALID,22.6087,VALID,71,VALID,0.550391,
2011-11-09, 01:58:04,VALID,999.492,VALID,0,VALID,92.2955,VALID,0,VALID,22.6282,VALID,71,VALID,0.139453,
2011-11-09, 01:59:04,VALID,999.463,VALID,0,VALID,92.2116,VALID,0,VALID,22.6282,VALID,71,VALID,0.135156,
2011-11-09, 02:00:04,VALID,999.495,VALID,0,VALID,92.1582,VALID,0,VALID,22.6282,VALID,71,VALID,0,
2011-11-09, 02:01:04,VALID,999.48,VALID,0,VALID,92.1658,VALID,0,VALID,22.6087,VALID,71,VALID,0,
2011-11-09, 02:02:04,VALID,999.452,VALID,0,VALID,92.1811,VALID,0,VALID,22.6087,VALID,71,VALID,0,
2011-11-09, 02:03:04,VALID,999.43,VALID,0,VALID,92.2345,VALID,0,VALID,22.6087,VALID,71,VALID,0.367969,
2011-11-09, 02:04:04,VALID,999.445,VALID,0,VALID,92.2879,VALID,0,VALID,22.6087,VALID,71,VALID,0.230078,
2011-11-09, 02:05:04,VALID,999.438,VALID,0,VALID,92.3413,VALID,0,VALID,22.6087,VALID,71,VALID,0.354688,
2011-11-09, 02:06:04,VALID,999.414,VALID,0,VALID,92.4023,VALID,0,VALID,22.5874,VALID,71,VALID,0,
2011-11-09, 02:07:04,VALID,999.414,VALID,0,VALID,92.5015,VALID,0,VALID,22.5892,VALID,71,VALID,0,
2011-11-09, 02:08:04,VALID,999.456,VALID,0,VALID,92.5549,VALID,0,VALID,22.5501,VALID,71,VALID,0,
2011-11-09, 02:09:04,VALID,999.416,VALID,0,VALID,92.6465,VALID,0,VALID,22.5501,VALID,71,VALID,0,
2011-11-09, 02:10:04,VALID,999.412,VALID,0,VALID,92.7228,VALID,0.104696,VALID,22.5306,VALID,71,VALID,0,
2011-11-09, 02:11:04,VALID,999.405,VALID,0,VALID,92.822,VALID,0,VALID,22.5306,VALID,71,VALID,0,
2011-11-09, 02:12:04,VALID,999.406,VALID,0,VALID,92.8906,VALID,0,VALID,22.5501,VALID,71,VALID,0,
2011-11-09, 02:13:04,VALID,999.417,VALID,0,VALID,92.8525,VALID,0,VALID,22.5501,VALID,71,VALID,0,
2011-11-09, 02:14:04,VALID,999.395,VALID,0,VALID,92.822,VALID,0,VALID,22.5714,VALID,52,VALID,0,
2011-11-09, 02:15:04,VALID,999.376,VALID,0,VALID,92.822,VALID,0,VALID,22.5501,VALID,52,VALID,0,
2011-11-09, 02:16:04,VALID,999.39,VALID,0,VALID,92.738,VALID,0,VALID,22.5501,VALID,52,VALID,0.142188,
2011-11-09, 02:17:04,VALID,999.392,VALID,0,VALID,92.6923,VALID,0,VALID,22.5306,VALID,52,VALID,0.958203,
2011-11-09, 02:18:04,VALID,999.393,VALID,0,VALID,92.6388,VALID,0,VALID,22.5306,VALID,52,VALID,0.892187,
2011-11-09, 02:19:04,VALID,999.399,VALID,0,VALID,92.6617,VALID,0,VALID,22.5111,VALID,52,VALID,0.753906,
2011-11-09, 02:20:04,VALID,999.411,VALID,0,VALID,92.6923,VALID,0.104696,VALID,22.4916,VALID,52,VALID,0.632813,
2011-11-09, 02:21:04,VALID,999.4,VALID,0,VALID,92.7151,VALID,0,VALID,22.4704,VALID,52,VALID,0.737891,
2011-11-09, 02:22:04,VALID,999.37,VALID,0,VALID,92.7838,VALID,0,VALID,22.4721,VALID,52,VALID,0.768359,
2011-11-09, 02:23:04,VALID,999.406,VALID,0,VALID,92.8143,VALID,0,VALID,22.4543,VALID,52,VALID,0.704297,
2011-11-09, 02:24:04,VALID,999.409,VALID,0,VALID,92.8296,VALID,0,VALID,22.4543,VALID,52,VALID,0.68125,
2011-11-09, 02:25:04,VALID,999.44,VALID,0,VALID,92.9059,VALID,0,VALID,22.4348,VALID,52,VALID,0.742969,
2011-11-09, 02:26:04,VALID,999.463,VALID,0,VALID,92.9593,VALID,0,VALID,22.4348,VALID,52,VALID,0.673828,
2011-11-09, 02:27:04,VALID,999.49,VALID,0,VALID,93.0203,VALID,0,VALID,22.4348,VALID,52,VALID,0.635156,
2011-11-09, 02:28:04,VALID,999.497,VALID,0,VALID,93.0432,VALID,0,VALID,22.4153,VALID,52,VALID,0.585156,
2011-11-09, 02:29:04,VALID,999.507,VALID,0,VALID,93.0661,VALID,0,VALID,22.3958,VALID,52,VALID,0.420312,
2011-11-09, 02:30:04,VALID,999.511,VALID,0,VALID,93.0737,VALID,0,VALID,22.3763,VALID,52,VALID,0.257422,
2011-11-09, 02:31:04,VALID,999.516,VALID,0,VALID,93.089,VALID,0,VALID,22.3568,VALID,52,VALID,0.214062,
2011-11-09, 02:32:04,VALID,999.525,VALID,0,VALID,93.1195,VALID,0,VALID,22.3178,VALID,52,VALID,0,
2011-11-09, 02:33:04,VALID,999.505,VALID,0,VALID,93.15,VALID,0,VALID,22.2788,VALID,52,VALID,0.0140625,
2011-11-09, 02:34:04,VALID,999.53,VALID,0,VALID,93.1958,VALID,0,VALID,22.2788,VALID,52,VALID,0,
2011-11-09, 02:35:04,VALID,999.524,VALID,0,VALID,93.2263,VALID,0,VALID,22.2788,VALID,52,VALID,0.177344,
2011-11-09, 02:36:04,VALID,999.533,VALID,0,VALID,93.2721,VALID,0,VALID,22.2788,VALID,52,VALID,0,
2011-11-09, 02:37:04,VALID,999.566,VALID,0,VALID,93.3103,VALID,0,VALID,22.2576,VALID,52,VALID,0.0160156,
2011-11-09, 02:38:04,VALID,999.55,VALID,0,VALID,93.3331,VALID,0,VALID,22.2576,VALID,52,VALID,0.329297,
2011-11-09, 02:39:04,VALID,999.577,VALID,0,VALID,93.3331,VALID,0,VALID,22.2966,VALID,52,VALID,0,
2011-11-09, 02:40:04,VALID,999.596,VALID,0,VALID,93.3179,VALID,0,VALID,22.2966,VALID,52,VALID,0.153125,
2011-11-09, 02:41:04,VALID,999.574,VALID,0,VALID,93.2416,VALID,0,VALID,22.3161,VALID,52,VALID,0,
2011-11-09, 02:42:04,VALID,999.585,VALID,0,VALID,93.1882,VALID,0,VALID,22.3356,VALID,52,VALID,0,
2011-11-09, 02:43:04,VALID,999.583,VALID,0,VALID,93.0737,VALID,0,VALID,22.3356,VALID,52,VALID,0,
2011-11-09, 02:44:04,VALID,999.614,VALID,0,VALID,92.9822,VALID,0,VALID,22.3551,VALID,52,VALID,0,
2011-11-09, 02:45:04,VALID,999.624,VALID,0,VALID,92.8677,VALID,0,VALID,22.3551,VALID,52,VALID,0,
2011-11-09, 02:46:04,VALID,999.593,VALID,0,VALID,92.7914,VALID,0,VALID,22.3551,VALID,52,VALID,0,
2011-11-09, 02:47:04,VALID,999.614,VALID,0,VALID,92.7075,VALID,0,VALID,22.3746,VALID,52,VALID,0,
2011-11-09, 02:48:04,VALID,999.626,VALID,0,VALID,92.6236,VALID,0,VALID,22.3746,VALID,52,VALID,0,
2011-11-09, 02:49:04,VALID,999.613,VALID,0,VALID,92.5702,VALID,0,VALID,22.3941,VALID,52,VALID,0,
2011-11-09, 02:50:04,VALID,999.656,VALID,0,VALID,92.5015,VALID,0.104696,VALID,22.4136,VALID,52,VALID,0,
2011-11-09, 02:51:04,VALID,999.639,VALID,0,VALID,92.41,VALID,0,VALID,22.4331,VALID,52,VALID,0,
2011-11-09, 02:52:04,VALID,999.653,VALID,0,VALID,92.2497,VALID,0,VALID,22.4738,VALID,52,VALID,0,
2011-11-09, 02:53:04,VALID,999.646,VALID,0,VALID,92.1048,VALID,0,VALID,22.4721,VALID,71,VALID,0.530078,
2011-11-09, 02:54:04,VALID,999.679,VALID,0,VALID,91.8759,VALID,0,VALID,22.4916,VALID,82,VALID,0.417578,
2011-11-09, 02:55:04,VALID,999.691,VALID,0,VALID,91.6851,VALID,0,VALID,22.5111,VALID,82,VALID,0,
2011-11-09, 02:56:04,VALID,999.686,VALID,0,VALID,91.4715,VALID,0,VALID,22.5306,VALID,82,VALID,0,
2011-11-09, 02:57:04,VALID,999.664,VALID,0,VALID,91.5326,VALID,0,VALID,22.5306,VALID,82,VALID,0,
2011-11-09, 02:58:04,VALID,999.659,VALID,0,VALID,91.647,VALID,0,VALID,22.5306,VALID,82,VALID,0,
2011-11-09, 02:59:04,VALID,999.697,VALID,0,VALID,91.8225,VALID,0,VALID,22.5306,VALID,82,VALID,0,
2011-11-09, 03:00:04,VALID,999.701,VALID,0,VALID,91.9751,VALID,0.104696,VALID,22.5501,VALID,82,VALID,0,
2011-11-09, 03:01:04,VALID,999.685,VALID,0,VALID,92.0895,VALID,0,VALID,22.5484,VALID,82,VALID,0,
2011-11-09, 03:02:04,VALID,999.692,VALID,0,VALID,92.1429,VALID,0,VALID,22.5696,VALID,82,VALID,0,
2011-11-09, 03:03:04,VALID,999.715,VALID,0,VALID,92.1887,VALID,0,VALID,22.5679,VALID,82,VALID,0.382031,
2011-11-09, 03:04:04,VALID,999.705,VALID,0,VALID,92.2497,VALID,0.104696,VALID,22.5892,VALID,82,VALID,0.491406,
2011-11-09, 03:05:04,VALID,999.73,VALID,0,VALID,92.2955,VALID,0,VALID,22.6087,VALID,82,VALID,0.200781,
2011-11-09, 03:06:04,VALID,999.705,VALID,0,VALID,92.2955,VALID,0,VALID,22.6282,VALID,82,VALID,0,
2011-11-09, 03:07:04,VALID,999.727,VALID,0,VALID,92.265,VALID,0,VALID,22.6672,VALID,82,VALID,0,
2011-11-09, 03:08:04,VALID,999.734,VALID,0,VALID,92.0971,VALID,0,VALID,22.7062,VALID,82,VALID,0,
2011-11-09, 03:09:04,VALID,999.706,VALID,0,VALID,91.8759,VALID,0,VALID,22.7045,VALID,82,VALID,0,
2011-11-09, 03:10:04,VALID,999.734,VALID,0,VALID,91.6775,VALID,0,VALID,22.7647,VALID,82,VALID,0,
2011-11-09, 03:11:04,VALID,999.728,VALID,0,VALID,91.4944,VALID,0,VALID,22.7842,VALID,82,VALID,0,
2011-11-09, 03:12:04,VALID,999.712,VALID,0,VALID,91.3494,VALID,0.104696,VALID,22.7842,VALID,82,VALID,0,
2011-11-09, 03:13:04,VALID,999.731,VALID,0,VALID,91.0824,VALID,0.104696,VALID,22.763,VALID,82,VALID,0,
2011-11-09, 03:14:04,VALID,999.694,VALID,0,VALID,90.7238,VALID,0,VALID,22.7842,VALID,82,VALID,0.685938,
2011-11-09, 03:15:04,VALID,999.721,VALID,0,VALID,90.472,VALID,0,VALID,22.7825,VALID,52,VALID,0.823047,
2011-11-09, 03:16:04,VALID,999.702,VALID,0,VALID,90.4873,VALID,0,VALID,22.8037,VALID,42,VALID,0.812891,
2011-11-09, 03:17:04,VALID,999.707,VALID,0,VALID,90.6475,VALID,0,VALID,22.7647,VALID,42,VALID,0.779688,
2011-11-09, 03:18:04,VALID,999.684,VALID,0,VALID,90.8306,VALID,0.104696,VALID,22.685,VALID,42,VALID,0.796875,
2011-11-09, 03:19:04,VALID,999.681,VALID,0,VALID,91.0214,VALID,0,VALID,22.6672,VALID,42,VALID,0.765625,
2011-11-09, 03:20:04,VALID,999.713,VALID,0,VALID,91.2045,VALID,0,VALID,22.6282,VALID,42,VALID,0.291797,
2011-11-09, 03:21:04,VALID,999.692,VALID,0,VALID,91.3952,VALID,0,VALID,22.6087,VALID,42,VALID,0.757031,
2011-11-09, 03:22:04,VALID,999.681,VALID,0,VALID,91.5326,VALID,0,VALID,22.5679,VALID,42,VALID,0.558594,
2011-11-09, 03:23:04,VALID,999.744,VALID,0,VALID,91.6546,VALID,0.104696,VALID,22.5679,VALID,42,VALID,0.548828,
2011-11-09, 03:24:04,VALID,999.746,VALID,0,VALID,91.6623,VALID,0,VALID,22.5679,VALID,42,VALID,0.342578,
2011-11-09, 03:25:04,VALID,999.773,VALID,0,VALID,91.7004,VALID,0,VALID,22.5892,VALID,42,VALID,0.290625,
2011-11-09, 03:26:04,VALID,999.794,VALID,0,VALID,91.7309,VALID,0,VALID,22.5696,VALID,42,VALID,0.344922,
2011-11-09, 03:27:04,VALID,999.797,VALID,0,VALID,91.8759,VALID,0,VALID,22.5289,VALID,42,VALID,0.326953,
2011-11-09, 03:28:04,VALID,999.803,VALID,0,VALID,91.9522,VALID,0,VALID,22.5501,VALID,42,VALID,0.392578,
2011-11-09, 03:29:04,VALID,999.788,VALID,0,VALID,92.0132,VALID,0,VALID,22.5501,VALID,42,VALID,0.163672,
2011-11-09, 03:30:04,VALID,999.789,VALID,0,VALID,92.0361,VALID,0,VALID,22.5306,VALID,42,VALID,0.0566406,
2011-11-09, 03:31:04,VALID,999.768,VALID,0,VALID,92.0285,VALID,0,VALID,22.5306,VALID,42,VALID,0,
2011-11-09, 03:32:04,VALID,999.768,VALID,0,VALID,92.0895,VALID,0,VALID,22.5111,VALID,42,VALID,0.0933594,
2011-11-09, 03:33:04,VALID,999.759,VALID,0,VALID,92.1277,VALID,0,VALID,22.5306,VALID,42,VALID,0,
2011-11-09, 03:34:04,VALID,999.784,VALID,0,VALID,92.1887,VALID,0,VALID,22.5111,VALID,42,VALID,0,
2011-11-09, 03:35:04,VALID,999.779,VALID,0,VALID,92.2879,VALID,0,VALID,22.5111,VALID,42,VALID,0.235547,
2011-11-09, 03:36:04,VALID,999.759,VALID,0,VALID,92.3489,VALID,0,VALID,22.5094,VALID,42,VALID,0.114453,
2011-11-09, 03:37:04,VALID,999.739,VALID,0,VALID,92.4023,VALID,0,VALID,22.5094,VALID,42,VALID,0.266016,
2011-11-09, 03:38:04,VALID,999.76,VALID,0,VALID,92.4405,VALID,0.104696,VALID,22.5501,VALID,42,VALID,0.266797,
2011-11-09, 03:39:04,VALID,999.73,VALID,0,VALID,92.3871,VALID,0,VALID,22.5289,VALID,43,VALID,0.683594,
2011-11-09, 03:40:04,VALID,999.752,VALID,0,VALID,92.2345,VALID,0,VALID,22.5289,VALID,46,VALID,0.584766,
2011-11-09, 03:41:04,VALID,999.744,VALID,0,VALID,92.0361,VALID,0,VALID,22.6087,VALID,46,VALID,0.14375,
2011-11-09, 03:42:04,VALID,999.774,VALID,0,VALID,91.8759,VALID,0,VALID,22.6282,VALID,46,VALID,0,
2011-11-09, 03:43:04,VALID,999.754,VALID,0,VALID,91.7996,VALID,0,VALID,22.6477,VALID,46,VALID,0.0558594,
2011-11-09, 03:44:04,VALID,999.779,VALID,0,VALID,91.6775,VALID,0,VALID,22.6264,VALID,46,VALID,0,
2011-11-09, 03:45:04,VALID,999.754,VALID,0,VALID,91.586,VALID,0,VALID,22.6672,VALID,46,VALID,0.114453,
2011-11-09, 03:46:04,VALID,999.761,VALID,0,VALID,91.5326,VALID,0,VALID,22.6672,VALID,46,VALID,0.276172,
2011-11-09, 03:47:04,VALID,999.787,VALID,0,VALID,91.4868,VALID,0,VALID,22.7257,VALID,46,VALID,0.456641,
2011-11-09, 03:48:04,VALID,999.801,VALID,0,VALID,91.3113,VALID,0,VALID,22.7045,VALID,46,VALID,0.679297,
2011-11-09, 03:49:04,VALID,999.768,VALID,0,VALID,91.1053,VALID,0,VALID,22.7647,VALID,46,VALID,0.538281,
2011-11-09, 03:50:04,VALID,999.817,VALID,0,VALID,90.9222,VALID,0,VALID,22.8037,VALID,46,VALID,0.395703,